Year,Month,Day,Hour,Minute,Value (Times are PST for temperature in C)
2016,07,06,00,00,12.20
2016,07,06,00,01,12.20
2016,07,06,00,02,12.10
2016,07,06,00,03,12.10
2016,07,06,00,04,12.10
2016,07,06,00,05,12.00
2016,07,06,00,06,12.00
2016,07,06,00,07,12.00
2016,07,06,00,08,12.00
2016,07,06,00,09,11.90
2016,07,06,00,10,11.90
2016,07,06,00,11,11.90
2016,07,06,00,12,11.90
2016,07,06,00,13,11.80
2016,07,06,00,14,11.80
2016,07,06,00,15,11.80
2016,07,06,00,16,11.80
2016,07,06,00,17,11.80
2016,07,06,00,18,11.80
2016,07,06,00,19,11.80
2016,07,06,00,20,11.80
2016,07,06,00,21,11.70
2016,07,06,00,22,11.70
2016,07,06,00,23,11.70
2016,07,06,00,24,11.70
2016,07,06,00,25,11.70
2016,07,06,00,26,11.60
2016,07,06,00,27,11.60
2016,07,06,00,28,11.60
2016,07,06,00,29,11.60
2016,07,06,00,30,11.60
2016,07,06,00,31,11.60
2016,07,06,00,32,11.40
2016,07,06,00,33,11.40
2016,07,06,00,34,11.40
2016,07,06,00,35,11.40
2016,07,06,00,36,11.40
2016,07,06,00,37,11.40
2016,07,06,00,38,11.60
2016,07,06,00,39,11.60
2016,07,06,00,40,11.60
2016,07,06,00,41,11.60
2016,07,06,00,42,11.60
2016,07,06,00,43,11.40
2016,07,06,00,44,11.40
2016,07,06,00,45,11.40
2016,07,06,00,46,11.40
2016,07,06,00,47,11.40
2016,07,06,00,48,11.40
2016,07,06,00,49,11.40
2016,07,06,00,50,11.40
2016,07,06,00,51,11.40
2016,07,06,00,52,11.40
2016,07,06,00,53,11.30
2016,07,06,00,54,11.30
2016,07,06,00,55,11.30
2016,07,06,00,56,11.20
2016,07,06,00,57,11.20
2016,07,06,00,58,11.20
2016,07,06,00,59,11.10
2016,07,06,01,00,11.10
2016,07,06,01,01,11.10
2016,07,06,01,02,11.00
2016,07,06,01,03,10.90
2016,07,06,01,04,10.90
2016,07,06,01,05,10.90
2016,07,06,01,06,10.90
2016,07,06,01,07,10.90
2016,07,06,01,08,10.90
2016,07,06,01,09,10.90
2016,07,06,01,10,10.80
2016,07,06,01,11,10.80
2016,07,06,01,12,10.80
2016,07,06,01,13,10.80
2016,07,06,01,14,10.80
2016,07,06,01,15,10.70
2016,07,06,01,16,10.70
2016,07,06,01,17,10.70
2016,07,06,01,18,10.70
2016,07,06,01,19,10.70
2016,07,06,01,20,10.70
2016,07,06,01,21,10.70
2016,07,06,01,22,10.70
2016,07,06,01,23,10.70
2016,07,06,01,24,10.70
2016,07,06,01,25,10.70
2016,07,06,01,26,10.70
2016,07,06,01,27,10.70
2016,07,06,01,28,10.70
2016,07,06,01,29,10.70
2016,07,06,01,30,10.70
2016,07,06,01,31,10.80
2016,07,06,01,32,10.80
2016,07,06,01,33,10.80
2016,07,06,01,34,10.80
2016,07,06,01,35,10.80
2016,07,06,01,36,10.80
2016,07,06,01,37,10.80
2016,07,06,01,38,10.80
2016,07,06,01,39,10.80
2016,07,06,01,40,10.80
2016,07,06,01,41,10.80
2016,07,06,01,42,10.80
2016,07,06,01,43,10.70
2016,07,06,01,44,10.70
2016,07,06,01,45,10.70
2016,07,06,01,46,10.70
2016,07,06,01,47,10.70
2016,07,06,01,48,10.70
2016,07,06,01,49,10.70
2016,07,06,01,50,10.70
2016,07,06,01,51,10.70
2016,07,06,01,52,10.60
2016,07,06,01,53,10.60
2016,07,06,01,54,10.60
2016,07,06,01,55,10.60
2016,07,06,01,56,10.60
2016,07,06,01,57,10.60
2016,07,06,01,58,10.60
2016,07,06,01,59,10.60
2016,07,06,02,00,10.60
2016,07,06,02,01,10.50
2016,07,06,02,02,10.40
2016,07,06,02,03,10.40
2016,07,06,02,04,10.40
2016,07,06,02,05,10.40
2016,07,06,02,06,10.40
2016,07,06,02,07,10.40
2016,07,06,02,08,10.40
2016,07,06,02,09,10.40
2016,07,06,02,10,10.40
2016,07,06,02,11,10.40
2016,07,06,02,12,10.40
2016,07,06,02,13,10.40
2016,07,06,02,14,10.40
2016,07,06,02,15,10.40
2016,07,06,02,16,10.60
2016,07,06,02,17,10.60
2016,07,06,02,18,10.60
2016,07,06,02,19,10.60
2016,07,06,02,20,10.60
2016,07,06,02,21,10.60
2016,07,06,02,22,10.60
2016,07,06,02,23,10.60
2016,07,06,02,24,10.70
2016,07,06,02,25,10.70
2016,07,06,02,26,10.70
2016,07,06,02,27,10.70
2016,07,06,02,28,10.70
2016,07,06,02,29,10.70
2016,07,06,02,30,10.70
2016,07,06,02,31,10.70
2016,07,06,02,32,10.70
2016,07,06,02,33,10.70
2016,07,06,02,34,10.70
2016,07,06,02,35,10.70
2016,07,06,02,36,10.70
2016,07,06,02,37,10.70
2016,07,06,02,38,10.70
2016,07,06,02,39,10.70
2016,07,06,02,40,10.70
2016,07,06,02,41,10.70
2016,07,06,02,42,10.70
2016,07,06,02,43,10.70
2016,07,06,02,44,10.70
2016,07,06,02,45,10.60
2016,07,06,02,46,10.60
2016,07,06,02,47,10.60
2016,07,06,02,48,10.60
2016,07,06,02,49,10.60
2016,07,06,02,50,10.60
2016,07,06,02,51,10.60
2016,07,06,02,52,10.60
2016,07,06,02,53,10.60
2016,07,06,02,54,10.60
2016,07,06,02,55,10.50
2016,07,06,02,56,10.40
2016,07,06,02,57,10.40
2016,07,06,02,58,10.40
2016,07,06,02,59,10.40
2016,07,06,03,00,10.40
2016,07,06,03,01,10.40
2016,07,06,03,02,10.40
2016,07,06,03,03,10.40
2016,07,06,03,04,10.40
2016,07,06,03,05,10.40
2016,07,06,03,06,10.40
2016,07,06,03,07,10.40
2016,07,06,03,08,10.30
2016,07,06,03,09,10.30
2016,07,06,03,10,10.30
2016,07,06,03,11,10.30
2016,07,06,03,12,10.30
2016,07,06,03,13,10.30
2016,07,06,03,14,10.30
2016,07,06,03,15,10.30
2016,07,06,03,16,10.30
2016,07,06,03,17,10.30
2016,07,06,03,18,10.30
2016,07,06,03,19,10.30
2016,07,06,03,20,10.20
2016,07,06,03,21,10.20
2016,07,06,03,22,10.20
2016,07,06,03,23,10.20
2016,07,06,03,24,10.20
2016,07,06,03,25,10.20
2016,07,06,03,26,10.10
2016,07,06,03,27,10.10
2016,07,06,03,28,10.10
2016,07,06,03,29,10.10
2016,07,06,03,30,10.10
2016,07,06,03,31,10.10
2016,07,06,03,32,10.10
2016,07,06,03,33,10.10
2016,07,06,03,34,10.10
2016,07,06,03,35,10.10
2016,07,06,03,36,10.10
2016,07,06,03,37,10.10
2016,07,06,03,38,10.10
2016,07,06,03,39,10.10
2016,07,06,03,40,10.10
2016,07,06,03,41,10.10
2016,07,06,03,42,10.10
2016,07,06,03,43,10.10
2016,07,06,03,44,10.10
2016,07,06,03,45,10.00
2016,07,06,03,46,9.90
2016,07,06,03,47,9.90
2016,07,06,03,48,9.90
2016,07,06,03,49,9.90
2016,07,06,03,50,9.90
2016,07,06,03,51,9.90
2016,07,06,03,52,9.90
2016,07,06,03,53,9.90
2016,07,06,03,54,9.90
2016,07,06,03,55,9.90
2016,07,06,03,56,9.90
2016,07,06,03,57,9.90
2016,07,06,03,58,9.90
2016,07,06,03,59,9.90
2016,07,06,04,00,9.90
2016,07,06,04,01,9.90
2016,07,06,04,02,9.90
2016,07,06,04,03,9.90
2016,07,06,04,04,9.80
2016,07,06,04,05,9.80
2016,07,06,04,06,9.80
2016,07,06,04,07,9.80
2016,07,06,04,08,9.80
2016,07,06,04,09,9.80
2016,07,06,04,10,9.80
2016,07,06,04,11,9.80
2016,07,06,04,12,9.80
2016,07,06,04,13,9.80
2016,07,06,04,14,9.80
2016,07,06,04,15,9.80
2016,07,06,04,16,9.70
2016,07,06,04,17,9.70
2016,07,06,04,18,9.70
2016,07,06,04,19,9.70
2016,07,06,04,20,9.70
2016,07,06,04,21,9.60
2016,07,06,04,22,9.60
2016,07,06,04,23,9.50
2016,07,06,04,24,9.50
2016,07,06,04,25,9.40
2016,07,06,04,26,9.40
2016,07,06,04,27,9.40
2016,07,06,04,28,9.30
2016,07,06,04,29,9.30
2016,07,06,04,30,9.30
2016,07,06,04,31,9.30
2016,07,06,04,32,9.20
2016,07,06,04,33,9.20
2016,07,06,04,34,9.20
2016,07,06,04,35,9.20
2016,07,06,04,36,9.20
2016,07,06,04,37,9.20
2016,07,06,04,38,9.20
2016,07,06,04,39,9.20
2016,07,06,04,40,9.20
2016,07,06,04,41,9.20
2016,07,06,04,42,9.20
2016,07,06,04,43,9.20
2016,07,06,04,44,9.20
2016,07,06,04,45,9.20
2016,07,06,04,46,9.20
2016,07,06,04,47,9.20
2016,07,06,04,48,9.20
2016,07,06,04,49,9.20
2016,07,06,04,50,9.20
2016,07,06,04,51,9.20
2016,07,06,04,52,9.20
2016,07,06,04,53,9.20
2016,07,06,04,54,9.20
2016,07,06,04,55,9.20
2016,07,06,04,56,9.20
2016,07,06,04,57,9.30
2016,07,06,04,58,9.20
2016,07,06,04,59,9.30
2016,07,06,05,00,9.30
2016,07,06,05,01,9.30
2016,07,06,05,02,9.20
2016,07,06,05,03,9.20
2016,07,06,05,04,9.20
2016,07,06,05,05,9.20
2016,07,06,05,06,9.20
2016,07,06,05,07,9.20
2016,07,06,05,08,9.20
2016,07,06,05,09,9.20
2016,07,06,05,10,9.20
2016,07,06,05,11,9.20
2016,07,06,05,12,9.20
2016,07,06,05,13,9.20
2016,07,06,05,14,9.20
2016,07,06,05,15,9.20
2016,07,06,05,16,9.20
2016,07,06,05,17,9.20
2016,07,06,05,18,9.20
2016,07,06,05,19,9.20
2016,07,06,05,20,9.20
2016,07,06,05,21,9.20
2016,07,06,05,22,9.20
2016,07,06,05,23,9.20
2016,07,06,05,24,9.10
2016,07,06,05,25,9.10
2016,07,06,05,26,9.10
2016,07,06,05,27,9.00
2016,07,06,05,28,9.00
2016,07,06,05,29,9.00
2016,07,06,05,30,9.00
2016,07,06,05,31,8.90
2016,07,06,05,32,8.90
2016,07,06,05,33,8.90
2016,07,06,05,34,8.90
2016,07,06,05,35,8.90
2016,07,06,05,36,8.90
2016,07,06,05,37,8.80
2016,07,06,05,38,8.80
2016,07,06,05,39,8.80
2016,07,06,05,40,8.80
2016,07,06,05,41,8.80
2016,07,06,05,42,8.80
2016,07,06,05,43,8.80
2016,07,06,05,44,8.80
2016,07,06,05,45,8.80
2016,07,06,05,46,8.80
2016,07,06,05,47,8.80
2016,07,06,05,48,8.70
2016,07,06,05,49,8.70
2016,07,06,05,50,8.70
2016,07,06,05,51,8.70
2016,07,06,05,52,8.70
2016,07,06,05,53,8.70
2016,07,06,05,54,8.80
2016,07,06,05,55,8.80
2016,07,06,05,56,8.80
2016,07,06,05,57,8.80
2016,07,06,05,58,8.90
2016,07,06,05,59,8.90
2016,07,06,06,00,8.90
2016,07,06,06,01,9.00
2016,07,06,06,02,9.00
2016,07,06,06,03,9.00
2016,07,06,06,04,9.00
2016,07,06,06,05,9.00
2016,07,06,06,06,9.10
2016,07,06,06,07,9.10
2016,07,06,06,08,9.10
2016,07,06,06,09,9.10
2016,07,06,06,10,9.10
2016,07,06,06,11,9.10
2016,07,06,06,12,9.10
2016,07,06,06,13,9.20
2016,07,06,06,14,9.20
2016,07,06,06,15,9.20
2016,07,06,06,16,9.20
2016,07,06,06,17,9.20
2016,07,06,06,18,9.20
2016,07,06,06,19,9.20
2016,07,06,06,20,9.20
2016,07,06,06,21,9.30
2016,07,06,06,22,9.30
2016,07,06,06,23,9.30
2016,07,06,06,24,9.30
2016,07,06,06,25,9.30
2016,07,06,06,26,9.20
2016,07,06,06,27,9.20
2016,07,06,06,28,9.20
2016,07,06,06,29,9.20
2016,07,06,06,30,9.20
2016,07,06,06,31,9.20
2016,07,06,06,32,9.10
2016,07,06,06,33,9.10
2016,07,06,06,34,9.10
2016,07,06,06,35,9.10
2016,07,06,06,36,9.10
2016,07,06,06,37,9.10
2016,07,06,06,38,9.10
2016,07,06,06,39,9.10
2016,07,06,06,40,9.10
2016,07,06,06,41,9.20
2016,07,06,06,42,9.20
2016,07,06,06,43,9.20
2016,07,06,06,44,9.20
2016,07,06,06,45,9.20
2016,07,06,06,46,9.20
2016,07,06,06,47,9.20
2016,07,06,06,48,9.20
2016,07,06,06,49,9.20
2016,07,06,06,50,9.20
2016,07,06,06,51,9.30
2016,07,06,06,52,9.30
2016,07,06,06,53,9.30
2016,07,06,06,54,9.30
2016,07,06,06,55,9.30
2016,07,06,06,56,9.40
2016,07,06,06,57,9.40
2016,07,06,06,58,9.40
2016,07,06,06,59,9.40
2016,07,06,07,00,9.50
2016,07,06,07,01,9.50
2016,07,06,07,02,9.60
2016,07,06,07,03,9.70
2016,07,06,07,04,9.70
2016,07,06,07,05,9.70
2016,07,06,07,06,9.80
2016,07,06,07,07,9.80
2016,07,06,07,08,9.90
2016,07,06,07,09,9.90
2016,07,06,07,10,9.90
2016,07,06,07,11,10.00
2016,07,06,07,12,10.10
2016,07,06,07,13,10.10
2016,07,06,07,14,10.10
2016,07,06,07,15,10.20
2016,07,06,07,16,10.20
2016,07,06,07,17,10.30
2016,07,06,07,18,10.40
2016,07,06,07,19,10.40
2016,07,06,07,20,10.50
2016,07,06,07,21,10.60
2016,07,06,07,22,10.60
2016,07,06,07,23,10.60
2016,07,06,07,24,10.70
2016,07,06,07,25,10.80
2016,07,06,07,26,10.80
2016,07,06,07,27,10.90
2016,07,06,07,28,10.90
2016,07,06,07,29,10.90
2016,07,06,07,30,10.90
2016,07,06,07,31,11.10
2016,07,06,07,32,11.10
2016,07,06,07,33,11.10
2016,07,06,07,34,11.10
2016,07,06,07,35,11.10
2016,07,06,07,36,11.10
2016,07,06,07,37,11.20
2016,07,06,07,38,11.20
2016,07,06,07,39,11.20
2016,07,06,07,40,11.30
2016,07,06,07,41,11.30
2016,07,06,07,42,11.30
2016,07,06,07,43,11.30
2016,07,06,07,44,11.30
2016,07,06,07,45,11.30
2016,07,06,07,46,11.30
2016,07,06,07,47,11.40
2016,07,06,07,48,11.40
2016,07,06,07,49,11.40
2016,07,06,07,50,11.40
2016,07,06,07,51,11.50
2016,07,06,07,52,11.60
2016,07,06,07,53,11.60
2016,07,06,07,54,11.70
2016,07,06,07,55,11.80
2016,07,06,07,56,11.80
2016,07,06,07,57,11.90
2016,07,06,07,58,11.90
2016,07,06,07,59,12.00
2016,07,06,08,00,12.00
2016,07,06,08,01,12.10
2016,07,06,08,02,12.10
2016,07,06,08,03,12.20
2016,07,06,08,04,12.20
2016,07,06,08,05,12.30
2016,07,06,08,06,12.30
2016,07,06,08,07,12.40
2016,07,06,08,08,12.50
2016,07,06,08,09,12.60
2016,07,06,08,10,12.70
2016,07,06,08,11,12.80
2016,07,06,08,12,12.80
2016,07,06,08,13,12.80
2016,07,06,08,14,12.90
2016,07,06,08,15,13.00
2016,07,06,08,16,13.00
2016,07,06,08,17,13.10
2016,07,06,08,18,13.10
2016,07,06,08,19,13.20
2016,07,06,08,20,13.20
2016,07,06,08,21,13.30
2016,07,06,08,22,13.30
2016,07,06,08,23,13.50
2016,07,06,08,24,13.60
2016,07,06,08,25,13.70
2016,07,06,08,26,13.80
2016,07,06,08,27,14.00
2016,07,06,08,28,14.10
2016,07,06,08,29,14.20
2016,07,06,08,30,14.40
2016,07,06,08,31,14.50
2016,07,06,08,32,14.70
2016,07,06,08,33,14.80
2016,07,06,08,34,14.90
2016,07,06,08,35,15.00
2016,07,06,08,36,15.10
2016,07,06,08,37,15.10
2016,07,06,08,38,15.20
2016,07,06,08,39,15.20
2016,07,06,08,40,15.30
2016,07,06,08,41,15.30
2016,07,06,08,42,15.30
2016,07,06,08,43,15.40
2016,07,06,08,44,15.50
2016,07,06,08,45,15.60
2016,07,06,08,46,15.70
2016,07,06,08,47,15.80
2016,07,06,08,48,15.80
2016,07,06,08,49,15.80
2016,07,06,08,50,15.80
2016,07,06,08,51,15.90
2016,07,06,08,52,15.90
2016,07,06,08,53,16.00
2016,07,06,08,54,16.10
2016,07,06,08,55,16.10
2016,07,06,08,56,16.00
2016,07,06,08,57,15.90
2016,07,06,08,58,15.90
2016,07,06,08,59,16.00
2016,07,06,09,00,16.10
2016,07,06,09,01,16.10
2016,07,06,09,02,16.20
2016,07,06,09,03,16.20
2016,07,06,09,04,16.20
2016,07,06,09,05,16.30
2016,07,06,09,06,16.30
2016,07,06,09,07,16.40
2016,07,06,09,08,16.40
2016,07,06,09,09,16.40
2016,07,06,09,10,16.40
2016,07,06,09,11,16.60
2016,07,06,09,12,16.70
2016,07,06,09,13,16.80
2016,07,06,09,14,16.90
2016,07,06,09,15,17.00
2016,07,06,09,16,17.00
2016,07,06,09,17,17.00
2016,07,06,09,18,17.10
2016,07,06,09,19,17.30
2016,07,06,09,20,17.40
2016,07,06,09,21,17.40
2016,07,06,09,22,17.50
2016,07,06,09,23,17.60
2016,07,06,09,24,17.70
2016,07,06,09,25,17.60
2016,07,06,09,26,17.60
2016,07,06,09,27,17.50
2016,07,06,09,28,17.50
2016,07,06,09,29,17.50
2016,07,06,09,30,17.50
2016,07,06,09,31,17.50
2016,07,06,09,32,17.50
2016,07,06,09,33,17.40
2016,07,06,09,34,17.30
2016,07,06,09,35,17.30
2016,07,06,09,36,17.30
2016,07,06,09,37,17.30
2016,07,06,09,38,17.20
2016,07,06,09,39,17.20
2016,07,06,09,40,17.10
2016,07,06,09,41,17.10
2016,07,06,09,42,17.10
2016,07,06,09,43,17.20
2016,07,06,09,44,17.20
2016,07,06,09,45,17.30
2016,07,06,09,46,17.20
2016,07,06,09,47,17.30
2016,07,06,09,48,17.30
2016,07,06,09,49,17.40
2016,07,06,09,50,17.50
2016,07,06,09,51,17.50
2016,07,06,09,52,17.50
2016,07,06,09,53,17.40
2016,07,06,09,54,17.20
2016,07,06,09,55,17.10
2016,07,06,09,56,17.00
2016,07,06,09,57,16.90
2016,07,06,09,58,16.90
2016,07,06,09,59,16.90
2016,07,06,10,00,16.80
2016,07,06,10,01,16.70
2016,07,06,10,02,16.70
2016,07,06,10,03,16.60
2016,07,06,10,04,16.50
2016,07,06,10,05,16.40
2016,07,06,10,06,16.40
2016,07,06,10,07,16.30
2016,07,06,10,08,16.30
2016,07,06,10,09,16.40
2016,07,06,10,10,16.30
2016,07,06,10,11,16.20
2016,07,06,10,12,16.20
2016,07,06,10,13,16.20
2016,07,06,10,14,16.10
2016,07,06,10,15,16.10
2016,07,06,10,16,16.10
2016,07,06,10,17,16.10
2016,07,06,10,18,16.00
2016,07,06,10,19,15.90
2016,07,06,10,20,16.10
2016,07,06,10,21,16.10
2016,07,06,10,22,16.20
2016,07,06,10,23,16.30
2016,07,06,10,24,16.20
2016,07,06,10,25,16.20
2016,07,06,10,26,16.10
2016,07,06,10,27,16.10
2016,07,06,10,28,16.10
2016,07,06,10,29,16.10
2016,07,06,10,30,16.10
2016,07,06,10,31,16.10
2016,07,06,10,32,16.10
2016,07,06,10,33,16.20
2016,07,06,10,34,16.20
2016,07,06,10,35,16.10
2016,07,06,10,36,16.20
2016,07,06,10,37,16.20
2016,07,06,10,38,16.10
2016,07,06,10,39,16.20
2016,07,06,10,40,16.20
2016,07,06,10,41,16.30
2016,07,06,10,42,16.40
2016,07,06,10,43,16.40
2016,07,06,10,44,16.40
2016,07,06,10,45,16.40
2016,07,06,10,46,16.40
2016,07,06,10,47,16.50
2016,07,06,10,48,16.60
2016,07,06,10,49,16.60
2016,07,06,10,50,16.60
2016,07,06,10,51,16.60
2016,07,06,10,52,16.60
2016,07,06,10,53,16.60
2016,07,06,10,54,16.60
2016,07,06,10,55,16.70
2016,07,06,10,56,16.70
2016,07,06,10,57,16.70
2016,07,06,10,58,16.70
2016,07,06,10,59,16.70
2016,07,06,11,00,16.70
2016,07,06,11,01,16.60
2016,07,06,11,02,16.50
2016,07,06,11,03,16.40
2016,07,06,11,04,16.40
2016,07,06,11,05,16.50
2016,07,06,11,06,16.60
2016,07,06,11,07,16.60
2016,07,06,11,08,16.70
2016,07,06,11,09,16.70
2016,07,06,11,10,16.70
2016,07,06,11,11,16.60
2016,07,06,11,12,16.60
2016,07,06,11,13,16.60
2016,07,06,11,14,16.50
2016,07,06,11,15,16.60
2016,07,06,11,16,16.50
2016,07,06,11,17,16.60
2016,07,06,11,18,16.50
2016,07,06,11,19,16.40
2016,07,06,11,20,16.50
2016,07,06,11,21,16.40
2016,07,06,11,22,16.60
2016,07,06,11,23,16.50
2016,07,06,11,24,16.40
2016,07,06,11,25,16.30
2016,07,06,11,26,16.30
2016,07,06,11,27,16.20
2016,07,06,11,28,16.10
2016,07,06,11,29,16.10
2016,07,06,11,30,16.10
2016,07,06,11,31,16.10
2016,07,06,11,32,15.90
2016,07,06,11,33,15.90
2016,07,06,11,34,16.00
2016,07,06,11,35,16.10
2016,07,06,11,36,16.00
2016,07,06,11,37,16.00
2016,07,06,11,38,16.20
2016,07,06,11,39,16.20
2016,07,06,11,40,16.20
2016,07,06,11,41,16.10
2016,07,06,11,42,15.90
2016,07,06,11,43,15.80
2016,07,06,11,44,15.90
2016,07,06,11,45,16.00
2016,07,06,11,46,16.20
2016,07,06,11,47,16.20
2016,07,06,11,48,16.20
2016,07,06,11,49,16.20
2016,07,06,11,50,16.10
2016,07,06,11,51,16.10
2016,07,06,11,52,16.10
2016,07,06,11,53,16.10
2016,07,06,11,54,16.20
2016,07,06,11,55,16.30
2016,07,06,11,56,16.40
2016,07,06,11,57,16.50
2016,07,06,11,58,16.60
2016,07,06,11,59,16.60
2016,07,06,12,00,16.60
2016,07,06,12,01,16.60
2016,07,06,12,02,16.50
2016,07,06,12,03,16.40
2016,07,06,12,04,16.40
2016,07,06,12,05,16.50
2016,07,06,12,06,16.40
2016,07,06,12,07,16.30
2016,07,06,12,08,16.20
2016,07,06,12,09,16.10
2016,07,06,12,10,16.10
2016,07,06,12,11,16.10
2016,07,06,12,12,16.10
2016,07,06,12,13,16.10
2016,07,06,12,14,16.20
2016,07,06,12,15,16.30
2016,07,06,12,16,16.20
2016,07,06,12,17,16.30
2016,07,06,12,18,16.20
2016,07,06,12,19,16.30
2016,07,06,12,20,16.20
2016,07,06,12,21,16.20
2016,07,06,12,22,16.20
2016,07,06,12,23,16.40
2016,07,06,12,24,16.50
2016,07,06,12,25,16.40
2016,07,06,12,26,16.40
2016,07,06,12,27,16.50
2016,07,06,12,28,16.60
2016,07,06,12,29,16.50
2016,07,06,12,30,16.50
2016,07,06,12,31,16.70
2016,07,06,12,32,16.90
2016,07,06,12,33,16.90
2016,07,06,12,34,17.00
2016,07,06,12,35,16.90
2016,07,06,12,36,17.00
2016,07,06,12,37,16.90
2016,07,06,12,38,17.00
2016,07,06,12,39,17.10
2016,07,06,12,40,17.10
2016,07,06,12,41,17.10
2016,07,06,12,42,17.10
2016,07,06,12,43,17.30
2016,07,06,12,44,17.30
2016,07,06,12,45,17.30
2016,07,06,12,46,17.30
2016,07,06,12,47,17.30
2016,07,06,12,48,17.30
2016,07,06,12,49,17.30
2016,07,06,12,50,17.30
2016,07,06,12,51,17.30
2016,07,06,12,52,17.10
2016,07,06,12,53,17.00
2016,07,06,12,54,17.00
2016,07,06,12,55,17.10
2016,07,06,12,56,17.10
2016,07,06,12,57,17.00
2016,07,06,12,58,17.00
2016,07,06,12,59,16.80
2016,07,06,13,00,16.80
2016,07,06,13,01,16.70
2016,07,06,13,02,16.70
2016,07,06,13,03,16.80
2016,07,06,13,04,16.80
2016,07,06,13,05,16.80
2016,07,06,13,06,16.80
2016,07,06,13,07,16.70
2016,07,06,13,08,16.70
2016,07,06,13,09,16.70
2016,07,06,13,10,16.70
2016,07,06,13,11,16.80
2016,07,06,13,12,16.80
2016,07,06,13,13,16.90
2016,07,06,13,14,16.90
2016,07,06,13,15,16.90
2016,07,06,13,16,16.70
2016,07,06,13,17,16.50
2016,07,06,13,18,16.40
2016,07,06,13,19,16.50
2016,07,06,13,20,16.50
2016,07,06,13,21,16.40
2016,07,06,13,22,16.40
2016,07,06,13,23,16.40
2016,07,06,13,24,16.50
2016,07,06,13,25,16.60
2016,07,06,13,26,16.70
2016,07,06,13,27,16.60
2016,07,06,13,28,16.70
2016,07,06,13,29,16.60
2016,07,06,13,30,16.60
2016,07,06,13,31,16.70
2016,07,06,13,32,16.60
2016,07,06,13,33,16.60
2016,07,06,13,34,16.80
2016,07,06,13,35,16.90
2016,07,06,13,36,17.00
2016,07,06,13,37,16.90
2016,07,06,13,38,16.70
2016,07,06,13,39,16.70
2016,07,06,13,40,16.80
2016,07,06,13,41,16.70
2016,07,06,13,42,16.80
2016,07,06,13,43,16.90
2016,07,06,13,44,17.10
2016,07,06,13,45,17.20
2016,07,06,13,46,17.10
2016,07,06,13,47,17.10
2016,07,06,13,48,17.10
2016,07,06,13,49,16.90
2016,07,06,13,50,16.80
2016,07,06,13,51,16.70
2016,07,06,13,52,16.70
2016,07,06,13,53,16.90
2016,07,06,13,54,17.00
2016,07,06,13,55,17.00
2016,07,06,13,56,17.10
2016,07,06,13,57,17.20
2016,07,06,13,58,17.30
2016,07,06,13,59,17.30
2016,07,06,14,00,17.20
2016,07,06,14,01,17.30
2016,07,06,14,02,17.30
2016,07,06,14,03,17.30
2016,07,06,14,04,17.30
2016,07,06,14,05,17.30
2016,07,06,14,06,17.30
2016,07,06,14,07,17.10
2016,07,06,14,08,17.10
2016,07,06,14,09,17.30
2016,07,06,14,10,17.50
2016,07,06,14,11,17.70
2016,07,06,14,12,17.80
2016,07,06,14,13,18.00
2016,07,06,14,14,18.00
2016,07,06,14,15,17.90
2016,07,06,14,16,17.80
2016,07,06,14,17,17.80
2016,07,06,14,18,17.80
2016,07,06,14,19,17.70
2016,07,06,14,20,17.60
2016,07,06,14,21,17.60
2016,07,06,14,22,17.60
2016,07,06,14,23,17.60
2016,07,06,14,24,17.60
2016,07,06,14,25,17.60
2016,07,06,14,26,17.50
2016,07,06,14,27,17.40
2016,07,06,14,28,17.40
2016,07,06,14,29,17.50
2016,07,06,14,30,17.50
2016,07,06,14,31,17.50
2016,07,06,14,32,17.70
2016,07,06,14,33,17.70
2016,07,06,14,34,17.70
2016,07,06,14,35,17.80
2016,07,06,14,36,17.80
2016,07,06,14,37,17.80
2016,07,06,14,38,17.90
2016,07,06,14,39,18.10
2016,07,06,14,40,18.20
2016,07,06,14,41,18.20
2016,07,06,14,42,18.20
2016,07,06,14,43,18.30
2016,07,06,14,44,18.50
2016,07,06,14,45,18.60
2016,07,06,14,46,18.80
2016,07,06,14,47,18.90
2016,07,06,14,48,18.80
2016,07,06,14,49,18.60
2016,07,06,14,50,18.50
2016,07,06,14,51,18.50
2016,07,06,14,52,18.40
2016,07,06,14,53,18.30
2016,07,06,14,54,18.40
2016,07,06,14,55,18.50
2016,07,06,14,56,18.60
2016,07,06,14,57,18.80
2016,07,06,14,58,18.70
2016,07,06,14,59,18.60
2016,07,06,15,00,18.50
2016,07,06,15,01,18.40
2016,07,06,15,02,18.40
2016,07,06,15,03,18.40
2016,07,06,15,04,18.50
2016,07,06,15,05,18.50
2016,07,06,15,06,18.60
2016,07,06,15,07,18.60
2016,07,06,15,08,18.60
2016,07,06,15,09,18.50
2016,07,06,15,10,18.60
2016,07,06,15,11,18.70
2016,07,06,15,12,18.60
2016,07,06,15,13,18.60
2016,07,06,15,14,18.60
2016,07,06,15,15,18.60
2016,07,06,15,16,18.50
2016,07,06,15,17,18.50
2016,07,06,15,18,18.70
2016,07,06,15,19,18.80
2016,07,06,15,20,18.90
2016,07,06,15,21,18.80
2016,07,06,15,22,18.80
2016,07,06,15,23,18.70
2016,07,06,15,24,18.50
2016,07,06,15,25,18.30
2016,07,06,15,26,18.10
2016,07,06,15,27,18.00
2016,07,06,15,28,17.90
2016,07,06,15,29,17.90
2016,07,06,15,30,17.90
2016,07,06,15,31,17.90
2016,07,06,15,32,17.90
2016,07,06,15,33,17.90
2016,07,06,15,34,18.00
2016,07,06,15,35,18.10
2016,07,06,15,36,18.20
2016,07,06,15,37,18.30
2016,07,06,15,38,18.40
2016,07,06,15,39,18.50
2016,07,06,15,40,18.60
2016,07,06,15,41,18.60
2016,07,06,15,42,18.50
2016,07,06,15,43,18.40
2016,07,06,15,44,18.40
2016,07,06,15,45,18.40
2016,07,06,15,46,18.50
2016,07,06,15,47,18.50
2016,07,06,15,48,18.60
2016,07,06,15,49,18.60
2016,07,06,15,50,18.70
2016,07,06,15,51,19.00
2016,07,06,15,52,19.10
2016,07,06,15,53,19.20
2016,07,06,15,54,19.10
2016,07,06,15,55,19.10
2016,07,06,15,56,19.10
2016,07,06,15,57,19.10
2016,07,06,15,58,19.10
2016,07,06,15,59,19.10
2016,07,06,16,00,19.20
2016,07,06,16,01,19.30
2016,07,06,16,02,19.40
2016,07,06,16,03,19.40
2016,07,06,16,04,19.50
2016,07,06,16,05,19.50
2016,07,06,16,06,19.40
2016,07,06,16,07,19.30
2016,07,06,16,08,19.40
2016,07,06,16,09,19.30
2016,07,06,16,10,19.40
2016,07,06,16,11,19.40
2016,07,06,16,12,19.30
2016,07,06,16,13,19.30
2016,07,06,16,14,19.20
2016,07,06,16,15,19.30
2016,07,06,16,16,19.20
2016,07,06,16,17,19.10
2016,07,06,16,18,19.10
2016,07,06,16,19,19.10
2016,07,06,16,20,19.00
2016,07,06,16,21,18.90
2016,07,06,16,22,18.90
2016,07,06,16,23,19.00
2016,07,06,16,24,19.10
2016,07,06,16,25,19.10
2016,07,06,16,26,19.20
2016,07,06,16,27,19.20
2016,07,06,16,28,19.20
2016,07,06,16,29,19.30
2016,07,06,16,30,19.30
2016,07,06,16,31,19.40
2016,07,06,16,32,19.60
2016,07,06,16,33,19.60
2016,07,06,16,34,19.50
2016,07,06,16,35,19.60
2016,07,06,16,36,19.70
2016,07,06,16,37,19.70
2016,07,06,16,38,19.70
2016,07,06,16,39,19.70
2016,07,06,16,40,19.60
2016,07,06,16,41,19.60
2016,07,06,16,42,19.40
2016,07,06,16,43,19.30
2016,07,06,16,44,19.30
2016,07,06,16,45,19.30
2016,07,06,16,46,19.40
2016,07,06,16,47,19.40
2016,07,06,16,48,19.50
2016,07,06,16,49,19.60
2016,07,06,16,50,19.70
2016,07,06,16,51,19.80
2016,07,06,16,52,19.90
2016,07,06,16,53,19.90
2016,07,06,16,54,19.90
2016,07,06,16,55,19.90
2016,07,06,16,56,19.90
2016,07,06,16,57,19.90
2016,07,06,16,58,19.80
2016,07,06,16,59,19.80
2016,07,06,17,00,19.70
2016,07,06,17,01,19.60
2016,07,06,17,02,19.60
2016,07,06,17,03,19.60
2016,07,06,17,04,19.40
2016,07,06,17,05,19.40
2016,07,06,17,06,19.30
2016,07,06,17,07,19.40
2016,07,06,17,08,19.50
2016,07,06,17,09,19.40
2016,07,06,17,10,19.40
2016,07,06,17,11,19.40
2016,07,06,17,12,19.30
2016,07,06,17,13,19.40
2016,07,06,17,14,19.40
2016,07,06,17,15,19.20
2016,07,06,17,16,19.10
2016,07,06,17,17,19.10
2016,07,06,17,18,19.10
2016,07,06,17,19,19.10
2016,07,06,17,20,19.10
2016,07,06,17,21,19.10
2016,07,06,17,22,19.10
2016,07,06,17,23,19.10
2016,07,06,17,24,19.20
2016,07,06,17,25,19.20
2016,07,06,17,26,19.20
2016,07,06,17,27,19.10
2016,07,06,17,28,19.10